TITAN 4B R/B, 26474

Orbit data source: Space-Track

TITAN 4B R/B, 26474 is space debris in LEO originally from a launch on Thu, 17 Aug 2000 UTC launched from the Air Force Western Test Range (AFWTR). Debris objects in space refer to the collection of defunct objects orbiting the Earth. Examples of debris include non-operational satellites, rocket bodies, and fragments generated from explosions, collisions, or faulty payload assembly.

Loading next visibility...
Identifier
26474, 2000-047B
Orbit
LEO
Country
Flag of USUS
Related business
Manufacturer
LMA
Mission
Spacecraft
Bus & Motor
TITAN 4 STAGE 2, Unknown motor
Mass
4,500 kg wet, 4,500 kg dry
Launch date (UTC)
2000-08-17 (26 years ago)
Launch vehicle
Unknown
Launch site
Air Force Western Test Range (AFWTR)
Object type
Payload
Rocket body
Debris
Shape & HBR
Cyl + Cone, 5.0 m
Radar Cross Section
27.267 m², Large (>1 m²)

Expand to show TLE details & history
Last TLE update: 2 days ago

TLE from 2 days ago
0 TITAN 4B R/B
1 26474U 00047B   26171.37175720  .00002473  00000-0  15570-3 0  9990
2 26474  67.9884 111.6092 0045860 283.7197  75.8849 15.10212746408414
Epoch: 2026-06-20T08:55Z
TLE epoch observation values (Epoch: 2026-06-20T08:55:19.822Z)
Latitude
-0.00004°
Longitude
69.18926°
Altitude
530.241 km
Speed
7.602 km/s
True Right ascension
07h 26m 26s
True Declination
0° 00' 00"
Sunlit
Object was in daylight at epoch
Visualization orbit readout
Latitude
Unknown
Longitude
Unknown
Altitude
Unknown
Speed
Unknown
Apparent Right ascension
Unknown
Apparent Declination
Unknown
Sunlit
N/A
Visualization observer readout
Local Sidereal Time
00:50:44
Azimuth
Unknown
Elevation
Unknown
Doppler factor
Unknown
Orbital elements
Apogee altitude
565.41 km
Perigee altitude
502.015 km
Semi-major axis
6,911.849 km
Eccentricity
0.00459
Inclination
67.9884°
RAAN
111.6092°
Arg. of periapsis
283.7197°
True anomaly
76.39526°
Mean anomaly
75.8849°
Eccentric anomaly
76.14001°
Mean motion
3.77704 °/min
Orbital period
95.31 mins
BSTAR
0.0001557
Loading maneuver chart data...
Computing Atmospheric mass density...
Loading historical data...
Loading historical data...
Loading historical data...
Loading historical data...
Loading historical data...
Loading historical data...
Loading historical data...
Other satellites on launch #47 in the year 2000 (2000-08-17 UTC)

Documentation

Showing up to 5 results
|